Terug naar catalogus

GRIFON-1

ActiefWetenschapSSO
NORAD 67267·PAYLOAD·🇷🇺 Russia
Deze satellietnaam is nog niet bevestigd door officiële bronnen.

Gelanceerd Dec 28, 2025 vanaf Vostochny Cosmodrome

Loading…

Volgende Passages (komende 24 uur)

TLE

VersSource: Space-Track

Epoch: Sep 13, 2026, 17:41 UTC

1 67267U 25313V   26256.73738702  .00007414  00000-0  29374-3 0  9994
2 67267  97.3871 330.3665 0014495  61.1883 299.0809 15.25606029 39455

Volg GRIFON-1 in realtime met AllMySat

Download on the App Store